Starlink 6050

operational
NORAD ID: 56458 Int'l Des: 2023-064 Owner: SPXS Country: US Constellation: starlink
LEOCIRCULAR

About Starlink 6050

Description loading...

Live Position

Loading 3D Globe...

Upcoming Passes

Altitude History

Altitude vs Time

uPlot chart will show altitude changes over time

Two-Line Element Set

1 56458U 23064L 25257.17174272 -.00000221 00000-0 -10697-4 0 9999
2 56458 69.9997 229.5868 0004072 264.9176 95.1518 14.98329815128805
Epoch: Sep 14, 2025 • Age: 27 hours

Current Status

Altitude 579.3 km
Velocity 7.57 km/s
Sub-Earth Point 39.85°N, 136.52°E
Launch Date May 10, 2023
Age 2.3 years
Type internet

Technical Details

Classification Payload
Mass 305.00 kg
Dry Mass 290.00 kg
Total Mass 305.00 kg
Length 0.20 m
Diameter 2.80 m
Span 9.00 m
Shape Box + pan
Manufacturer SPXS
Bus Type Starlink
Phase Status In Orbit
Owner/State SPXS/US

Large Constellations

Loading constellations...